Simultaneous Nadir Overpasses (SNOs) Predictions

Prediction of SNOs between LANDSAT-8 and NOAA-19 Satellite Orbit:

Table of predicted SNOs for the next 14.0 days since TLE Epoch: 4/6/2017
Index Date (LANDSAT-8) Time (LANDSAT-8) Lat,Lon (LANDSAT-8) SZA (LANDSAT-8 ) Date (NOAA-19) Time (NOAA-19) Lat,Lon (NOAA-19) SZA (NOAA-19 ) Distance(km) Time Diff (sec)
1 04/07/2017 21:27:28 -76.02, 46.18 111.09 04/07/2017 21:26:19 -76.01, 46.16 111.11 1.36 69
2 04/07/2017 22:16:55 75.95,-146.38 68.83 04/07/2017 22:17:22 75.95,-146.38 68.83 0.75 27
3 04/10/2017 03:01:10 76.02, 142.75 68.09 04/10/2017 03:00:14 76.02, 142.71 68.08 1.18 56
4 04/10/2017 03:50:39 -75.94, -49.84 112.01 04/10/2017 03:51:10 -75.93, -49.73 112.01 3.12 31
5 04/12/2017 08:34:54 -76.01,-120.71 112.74 04/12/2017 08:34:03 -76.03,-120.72 112.73 1.74 51
6 04/12/2017 09:24:21 75.94, 46.71 67.17 04/12/2017 09:25:05 75.97, 46.72 67.22 3.76 44
7 04/14/2017 14:08:36 76.00, -24.18 66.45 04/14/2017 14:07:56 76.01, -24.06 66.46 3.28 40
8 04/14/2017 14:58:04 -75.98, 143.40 113.59 04/14/2017 14:58:54 -75.96, 143.37 113.60 2.28 50
9 04/16/2017 19:42:19 -76.04, 72.51 114.30 04/16/2017 19:41:46 -76.01, 72.52 114.32 2.77 33
10 04/16/2017 20:31:46 75.96,-120.09 65.61 04/16/2017 20:32:47 75.97,-120.08 65.63 1.10 61
11 04/19/2017 01:16:01 76.02, 169.01 64.91 04/19/2017 01:15:38 76.01, 169.12 64.91 2.91 23




NCC Satellite Simultaneous Nadir Overpasses (SNOs) Prediction Service
